Temp
1 2 1 -1 0 -0 -1 -1 -1 -0 0 -0 -1 -2 -1 -2 -4 -4 -4 -4 -4 -4 -4 -5 -5 -5 -7 -7 -7 -7 -8 -8 -8 -9 -10 -11 -12 -13 -13 -14 -14 -14 -14 -14
1 2 1 0 1 -1 -0 -1 -1 -1 -1 -2 -2 -2 -2 -4 -4 -4 -4 -3 -4 -4 -6 -6 -7 -7 -7 -7 -8 -8 -8 -9 -9 -10 -11 -12 -13 -14 -14 -15 -14 -15 -15 -15
-0 0 0 1 2 0 -0 -1 -1 -1 -1 -1 -2 -3 -4 -4 -4 -3 -4 -4 -5 -5 -6 -7 -7 -7 -7 -8 -8 -8 -9 -10 -10 -11 -13 -13 -14 -15 -15 -15 -15 -15 -15 -15
-1 -1 -0 1 0 -0 -0 -0 -1 -2 -2 -2 -3 -4 -4 -4 -4 -4 -5 -5 -5 -6 -7 -7 -7 -8 -8 -8 -9 -10 -10 -11 -11 -13 -13 -14 -15 -15 -15 -15 -15 -16 -16 -16
-3 -3 -1 -0 -0 -1 -2 -1 -2 -2 -2 -2 -3 -4 -4 -4 -3 -4 -5 -5 -6 -7 -8 -8 -8 -9 -9 -9 -10 -10 -11 -12 -13 -14 -14 -15 -15 -15 -15 -15 -16 -16 -16 -16
-4 -4 -2 -1 -1 -2 -1 -2 -2 -2 -3 -4 -4 -5 -5 -5 -5 -6 -7 -7 -8 -9 -9 -9 -9 -9 -9 -10 -10 -11 -12 -12 -13 -14 -15 -15 -15 -15 -16 -16 -16 -16 -17 -17
-4 -4 -3 -3 -2 -2 -3 -3 -3 -4 -4 -5 -6 -6 -6 -6 -7 -8 -8 -9 -9 -9 -9 -9 -10 -10 -10 -11 -11 -12 -12 -13 -14 -15 -15 -15 -15 -16 -16 -16 -16 -16 -17 -17
-4 -4 -4 -2 -3 -3 -4 -4 -4 -4 -4 -5 -6 -6 -6 -7 -8 -9 -9 -9 -9 -9 -9 -10 -10 -10 -10 -11 -12 -13 -13 -14 -15 -15 -15 -15 -16 -16 -16 -16 -16 -17 -18 -18
-3 -2 -3 -3 -3 -4 -4 -5 -4 -5 -5 -6 -6 -7 -8 -8 -9 -9 -9 -10 -10 -10 -10 -11 -11 -11 -12 -12 -13 -13 -14 -15 -15 -16 -16 -16 -16 -16 -16 -17 -17 -18 -18 -18
-4 -2 -4 -4 -4 -3 -4 -4 -5 -6 -6 -6 -7 -7 -8 -9 -9 -9 -10 -10 -10 -11 -11 -11 -12 -12 -13 -13 -13 -13 -14 -15 -16 -16 -16 -16 -16 -16 -17 -17 -17 -18 -18 -18
-4 -3 -4 -4 -4 -4 -5 -5 -6 -6 -7 -7 -8 -9 -9 -9 -10 -10 -10 -11 -11 -12 -12 -12 -13 -13 -14 -14 -14 -14 -14 -16 -16 -16 -16 -16 -16 -16 -17 -17 -18 -18 -18 -18
-3 -4 -4 -5 -5 -5 -5 -6 -6 -7 -8 -9 -9 -9 -10 -10 -10 -10 -11 -12 -12 -12 -12 -13 -13 -14 -14 -14 -14 -15 -15 -16 -16 -16 -16 -16 -16 -17 -17 -17 -18 -18 -18 -18
-4 -4 -5 -5 -5 -6 -6 -7 -8 -8 -9 -9 -10 -10 -10 -10 -10 -11 -12 -12 -12 -13 -13 -13 -13 -14 -14 -14 -15 -15 -16 -16 -16 -16 -16 -16 -17 -17 -17 -17 -17 -18 -18 -18
-4 -5 -6 -6 -6 -7 -7 -8 -8 -9 -10 -10 -10 -10 -10 -11 -11 -12 -12 -12 -13 -13 -13 -13 -13 -14 -15 -15 -15 -15 -16 -15 -16 -16 -16 -17 -17 -17 -17 -17 -17 -18 -18 -18
-5 -5 -5 -6 -7 -8 -8 -9 -9 -10 -10 -10 -10 -11 -11 -11 -12 -12 -12 -13 -13 -13 -13 -14 -14 -14 -15 -15 -15 -16 -15 -15 -15 -16 -16 -17 -17 -17 -17 -17 -17 -18 -18 -18
-6 -6 -6 -8 -8 -8 -9 -10 -10 -10 -10 -10 -11 -11 -11 -12 -12 -13 -13 -13 -13 -13 -13 -14 -14 -15 -16 -15 -15 -15 -15 -15 -16 -16 -16 -17 -17 -17 -17 -17 -17 -18 -18 -18
-7 -7 -8 -8 -9 -9 -9 -10 -10 -10 -11 -11 -11 -12 -12 -12 -12 -13 -13 -13 -13 -13 -13 -14 -14 -15 -15 -15 -15 -15 -15 -16 -16 -16 -16 -17 -17 -17 -17 -17 -17 -18 -18 -18
-7 -8 -8 -8 -9 -10 -11 -11 -11 -11 -11 -12 -12 -12 -12 -12 -13 -12 -13 -13 -14 -14 -14 -14 -15 -15 -15 -15 -15 -15 -15 -16 -16 -16 -16 -17 -17 -17 -17 -17 -17 -18 -18 -18
-8 -8 -9 -10 -11 -11 -11 -11 -11 -12 -12 -12 -12 -13 -13 -13 -13 -13 -13 -14 -14 -14 -14 -14 -15 -15 -15 -15 -15 -15 -16 -16 -16 -16 -16 -17 -17 -17 -17 -17 -17 -18 -18 -18
-9 -10 -11 -11 -11 -11 -11 -12 -12 -12 -12 -13 -13 -13 -13 -13 -13 -13 -13 -14 -15 -14 -14 -15 -15 -15 -15 -15 -15 -15 -15 -16 -16 -16 -16 -17 -17 -17 -18 -18 -18 -18 -18 -18
-11 -11 -11 -11 -11 -11 -12 -12 -12 -12 -13 -13 -13 -13 -13 -13 -13 -14 -14 -14 -15 -14 -15 -15 -15 -16 -16 -16 -16 -15 -16 -16 -16 -16 -16 -17 -17 -17 -18 -18 -18 -18 -18 -18
-11 -11 -11 -11 -11 -11 -12 -12 -13 -13 -13 -13 -13 -14 -13 -13 -13 -14 -14 -15 -15 -15 -15 -15 -16 -16 -16 -16 -16 -16 -16 -16 -16 -16 -16 -17 -17 -17 -18 -18 -18 -18 -18 -18
-11 -11 -11 -12 -12 -12 -12 -12 -13 -13 -13 -13 -14 -14 -14 -14 -14 -14 -14 -14 -14 -15 -15 -15 -16 -16 -16 -16 -16 -16 -16 -16 -16 -16 -17 -17 -17 -17 -18 -18 -18 -18 -18 -18
-11 -12 -12 -12 -12 -12 -12 -12 -13 -13 -13 -13 -13 -14 -14 -13 -14 -14 -14 -14 -15 -15 -15 -16 -16 -16 -16 -16 -16 -16 -16 -16 -17 -17 -17 -17 -17 -18 -18 -18 -18 -19 -19 -19
-12 -12 -12 -12 -13 -13 -13 -13 -13 -13 -13 -13 -13 -13 -13 -14 -14 -14 -14 -14 -15 -15 -15 -16 -16 -16 -16 -16 -16 -16 -16 -16 -17 -17 -17 -17 -17 -18 -18 -18 -18 -19 -19 -19
-12 -13 -13 -13 -13 -13 -13 -13 -13 -13 -13 -13 -13 -13 -13 -14 -14 -14 -14 -14 -15 -15 -15 -16 -16 -16 -16 -16 -16 -16 -16 -16 -17 -17 -17 -17 -18 -18 -18 -18 -19 -19 -19 -19
-13 -13 -14 -14 -14 -14 -14 -14 -14 -13 -14 -14 -14 -14 -14 -14 -14 -14 -14 -14 -15 -15 -16 -16 -16 -16 -16 -16 -16 -16 -16 -16 -17 -17 -17 -18 -18 -18 -18 -19 -19 -19 -19 -19
Height
3152 3151 3148 3147 3146 3146 3144 3143 3143 3139 3137 3137 3134 3129 3125 3122 3118 3114 3110 3105 3098 3092 3085 3080 3073 3067 3062 3057 3051 3045 3038 3031 3023 3016 3008 3001 2995 2989 2983 2978 2972 2967 2962 2957
3147 3147 3143 3141 3140 3138 3137 3136 3136 3135 3133 3130 3126 3123 3119 3116 3112 3107 3101 3094 3088 3081 3076 3070 3065 3060 3054 3048 3042 3035 3028 3021 3014 3007 2999 2992 2988 2982 2976 2970 2965 2960 2955 2950
3145 3144 3139 3136 3134 3135 3135 3133 3133 3131 3129 3125 3121 3117 3113 3107 3104 3097 3090 3084 3078 3072 3068 3063 3059 3054 3048 3040 3034 3027 3020 3012 3004 2998 2991 2985 2980 2975 2969 2964 2958 2953 2947 2941
3144 3142 3137 3132 3131 3131 3130 3129 3128 3125 3121 3119 3115 3112 3107 3099 3094 3088 3082 3077 3072 3067 3062 3058 3052 3047 3041 3034 3027 3019 3012 3005 2997 2990 2984 2978 2973 2967 2962 2957 2951 2945 2938 2932
3142 3141 3133 3126 3127 3127 3126 3125 3122 3119 3117 3113 3109 3104 3102 3093 3087 3082 3076 3071 3065 3060 3056 3051 3045 3040 3033 3026 3018 3011 3003 2996 2990 2983 2977 2971 2966 2960 2955 2950 2944 2937 2930 2924
3140 3139 3131 3126 3123 3121 3120 3120 3115 3114 3111 3105 3101 3096 3092 3087 3081 3076 3069 3064 3058 3053 3048 3042 3037 3030 3023 3016 3010 3003 2996 2989 2983 2976 2971 2965 2960 2955 2949 2943 2936 2929 2923 2917
3135 3132 3126 3121 3118 3117 3118 3117 3110 3106 3102 3098 3094 3090 3082 3077 3072 3067 3062 3057 3052 3048 3042 3035 3028 3021 3014 3007 3001 2994 2987 2981 2975 2970 2965 2960 2955 2950 2943 2936 2930 2924 2917 2910
3129 3127 3122 3118 3115 3114 3111 3105 3101 3097 3094 3090 3085 3080 3075 3070 3065 3061 3056 3052 3047 3040 3033 3026 3020 3012 3006 2999 2992 2986 2980 2974 2969 2964 2959 2955 2949 2943 2936 2930 2923 2917 2909 2902
3125 3119 3117 3114 3107 3106 3101 3098 3094 3090 3086 3083 3077 3072 3067 3063 3059 3055 3050 3044 3037 3031 3023 3017 3009 3003 2997 2991 2985 2978 2973 2967 2962 2958 2954 2949 2943 2937 2930 2924 2917 2910 2903 2896
3114 3109 3109 3106 3102 3099 3094 3091 3088 3084 3079 3075 3070 3066 3062 3057 3053 3047 3041 3034 3027 3020 3013 3007 3000 2993 2986 2981 2976 2971 2965 2960 2956 2952 2948 2944 2937 2931 2925 2919 2912 2905 2897 2890
3104 3102 3100 3099 3095 3092 3088 3084 3081 3076 3073 3069 3065 3060 3055 3049 3043 3037 3029 3022 3016 3009 3002 2995 2988 2982 2976 2971 2967 2963 2957 2953 2951 2947 2942 2937 2932 2926 2922 2914 2907 2900 2892 2885
3096 3095 3094 3091 3088 3085 3082 3078 3075 3071 3067 3063 3059 3053 3047 3041 3035 3028 3020 3012 3006 3000 2992 2985 2977 2971 2966 2962 2958 2954 2950 2948 2945 2942 2937 2932 2928 2923 2916 2911 2903 2896 2888 2881
3091 3087 3086 3084 3082 3078 3075 3072 3068 3065 3060 3055 3051 3045 3039 3031 3025 3017 3011 3005 2997 2989 2983 2976 2969 2964 2959 2955 2951 2948 2946 2944 2940 2936 2932 2928 2924 2919 2914 2907 2899 2893 2885 2877
3083 3081 3079 3077 3074 3071 3068 3065 3060 3057 3053 3048 3042 3037 3030 3023 3016 3010 3002 2996 2990 2982 2975 2968 2962 2957 2953 2949 2946 2944 2942 2939 2936 2932 2929 2924 2920 2916 2911 2905 2897 2890 2883 2876
3077 3075 3073 3071 3068 3065 3061 3057 3053 3049 3044 3039 3033 3026 3020 3014 3008 3002 2995 2988 2982 2975 2968 2962 2956 2951 2948 2946 2943 2940 2938 2935 2932 2929 2925 2921 2917 2913 2908 2902 2895 2888 2882 2875
3070 3069 3067 3066 3063 3059 3054 3050 3045 3041 3036 3030 3024 3018 3012 3005 3000 2994 2987 2980 2974 2968 2962 2956 2951 2947 2945 2943 2940 2937 2935 2932 2929 2926 2922 2918 2914 2910 2905 2900 2893 2887 2881 2875
3065 3063 3061 3058 3054 3051 3047 3042 3037 3031 3026 3020 3014 3009 3003 2997 2991 2985 2979 2973 2967 2961 2956 2951 2947 2944 2942 2939 2936 2934 2931 2929 2926 2923 2919 2915 2911 2907 2903 2897 2892 2886 2880 2875
3058 3056 3054 3051 3048 3044 3040 3035 3028 3023 3017 3011 3005 2999 2994 2987 2981 2975 2970 2965 2960 2955 2950 2946 2943 2940 2938 2936 2933 2930 2928 2926 2923 2920 2916 2913 2909 2905 2900 2895 2890 2885 2880 2875
3052 3050 3047 3044 3040 3036 3031 3025 3019 3014 3009 3002 2997 2991 2985 2979 2973 2967 2962 2958 2953 2949 2946 2942 2939 2936 2934 2932 2929 2927 2924 2922 2919 2916 2913 2910 2906 2902 2898 2893 2889 2884 2879 2875
3045 3042 3039 3036 3032 3026 3021 3016 3010 3005 3000 2995 2989 2983 2977 2972 2965 2960 2955 2951 2947 2944 2940 2937 2935 2933 2931 2928 2926 2923 2921 2918 2916 2913 2910 2907 2903 2899 2896 2891 2887 2883 2878 2874
3037 3034 3031 3027 3022 3017 3012 3007 3002 2997 2992 2987 2981 2975 2969 2963 2957 2952 2948 2944 2941 2938 2935 2932 2931 2929 2926 2924 2922 2920 2917 2914 2912 2909 2906 2903 2900 2896 2893 2889 2885 2881 2876 2872
3029 3026 3022 3017 3012 3009 3004 3000 2994 2989 2984 2979 2973 2967 2961 2956 2950 2946 2942 2938 2936 2933 2930 2928 2926 2925 2922 2920 2918 2916 2913 2911 2909 2906 2903 2900 2896 2893 2889 2886 2882 2878 2874 2870
3019 3016 3012 3008 3003 2999 2996 2991 2987 2983 2978 2972 2967 2960 2954 2948 2943 2938 2935 2933 2930 2928 2926 2924 2922 2920 2918 2916 2914 2912 2909 2907 2905 2903 2900 2897 2893 2890 2886 2883 2879 2875 2871 2867
3009 3006 3002 2999 2995 2991 2988 2984 2980 2976 2971 2965 2960 2954 2947 2940 2938 2933 2929 2927 2925 2924 2922 2920 2918 2916 2914 2911 2909 2907 2905 2904 2902 2899 2897 2894 2890 2887 2883 2879 2876 2872 2868 2865
3000 2997 2993 2990 2986 2983 2980 2977 2973 2969 2964 2959 2954 2948 2942 2936 2931 2928 2925 2923 2922 2920 2918 2916 2914 2912 2910 2907 2905 2903 2901 2900 2898 2895 2893 2890 2887 2883 2880 2876 2873 2869 2865 2862
2991 2987 2984 2981 2979 2976 2972 2969 2964 2960 2955 2951 2947 2942 2936 2931 2927 2924 2922 2919 2918 2916 2914 2912 2910 2908 2905 2903 2901 2899 2897 2895 2893 2891 2889 2886 2883 2880 2876 2873 2870 2866 2862 2859
2983 2979 2976 2974 2971 2968 2964 2960 2955 2951 2947 2942 2938 2935 2930 2926 2922 2919 2917 2914 2912 2910 2909 2907 2905 2903 2900 2898 2896 2894 2892 2890 2888 2886 2884 2881 2879 2876 2873 2870 2866 2863 2859 2856
Wind_Speed
12 14 18 17 15 15 19 20 17 18 19 19 19 23 27 28 23 26 32 41 43 43 43 40 39 36 34 32 32 35 40 45 47 48 47 44 40 37 37 37 35 35 35 35
17 17 16 19 24 17 8 13 17 18 20 14 25 30 25 27 28 33 43 44 46 44 36 34 33 31 32 34 36 39 43 46 48 47 44 40 37 36 36 33 32 31 30 31
8 13 24 13 3 5 12 12 13 12 13 23 22 22 26 35 37 40 42 42 40 37 32 32 32 32 33 35 39 42 45 47 47 45 42 37 35 32 31 30 30 32 35 37
9 15 4 5 16 22 14 11 10 16 18 24 20 23 30 42 41 40 35 39 39 35 29 30 29 31 34 36 41 43 45 45 44 42 38 35 32 31 29 32 35 37 37 35
3 6 21 13 4 8 10 17 19 19 21 31 27 35 29 41 36 34 42 37 32 30 26 28 31 34 36 40 43 46 45 43 39 38 39 32 32 32 34 37 37 35 33 34
9 5 5 3 17 20 15 14 14 22 34 34 36 38 37 32 35 40 29 30 27 27 28 32 35 39 42 44 46 46 44 40 36 35 33 32 32 34 37 37 35 34 34 35
11 11 13 16 14 10 9 13 31 33 36 28 33 36 41 36 30 28 29 27 27 31 36 38 38 41 43 46 46 45 41 37 34 32 30 31 33 35 36 34 34 33 36 37
7 8 7 6 16 22 27 33 36 36 35 33 40 37 32 31 28 25 28 32 35 38 41 40 40 42 44 45 44 42 37 34 32 28 29 31 34 34 33 33 33 36 37 39
13 18 21 27 28 30 29 32 33 34 32 39 36 33 31 29 30 33 36 39 43 45 44 40 42 44 44 43 41 36 36 33 28 27 29 31 34 32 32 31 35 36 39 40
25 27 19 23 28 32 31 31 36 31 38 38 36 32 34 34 34 38 41 46 46 42 42 42 43 44 41 40 37 36 36 30 25 28 29 30 31 30 30 33 34 38 40 37
25 25 23 26 29 37 29 34 32 35 37 33 31 31 34 36 39 43 46 43 41 43 45 45 44 42 39 32 35 38 30 23 25 27 29 28 27 26 27 31 35 37 36 36
27 20 25 30 33 26 33 34 33 32 29 28 32 36 37 40 44 44 42 42 43 44 44 45 43 37 33 31 33 30 20 21 25 26 26 25 23 25 28 30 34 35 34 34
27 28 26 25 28 32 30 28 29 28 30 35 36 37 42 47 47 43 41 42 44 43 44 41 37 33 29 28 28 18 18 22 23 23 22 21 22 23 25 31 33 30 32 33
28 27 25 27 33 28 27 30 29 30 33 36 41 45 46 44 42 40 41 42 42 40 40 36 34 28 26 24 15 16 19 19 20 20 19 20 20 21 25 29 31 30 32 32
26 24 26 30 27 27 28 29 32 34 39 44 48 45 43 42 40 41 41 39 38 37 35 33 30 23 21 15 15 17 16 17 18 18 19 18 18 20 24 28 30 30 30 31
26 26 25 24 25 28 29 32 38 42 46 47 43 42 40 40 41 39 39 37 36 34 32 30 22 19 14 15 16 16 15 16 17 18 19 18 19 20 23 26 28 29 29 29
21 22 24 26 28 30 36 39 43 46 41 40 39 38 40 40 39 38 37 34 33 31 31 23 18 15 15 16 16 15 15 15 17 18 19 18 18 19 22 24 26 27 28 28
21 24 27 29 31 37 39 43 39 39 38 37 38 38 38 39 40 38 33 31 29 28 25 19 14 14 16 16 16 16 15 15 16 18 19 18 18 18 20 23 24 25 26 27
24 26 27 30 34 40 39 38 39 38 36 36 37 37 38 38 36 34 30 28 26 26 21 17 13 15 16 16 16 16 15 15 15 18 19 18 17 18 19 22 23 23 24 24
24 27 30 35 39 37 38 36 37 35 36 37 37 37 38 37 37 34 31 26 24 24 20 16 13 15 16 16 15 15 15 15 16 18 18 18 18 18 19 21 22 23 22 22
28 32 37 36 36 36 34 35 34 35 35 36 37 38 39 37 35 31 28 24 23 23 19 15 13 15 15 15 15 15 15 16 16 17 18 18 19 20 20 20 21 21 21 20
34 34 34 35 35 35 33 32 33 35 37 35 35 38 38 36 32 26 25 21 23 21 18 14 14 14 16 15 15 15 15 15 15 15 17 18 19 20 20 20 20 20 20 19
32 35 35 35 36 33 30 29 30 32 34 32 34 37 37 35 30 28 25 22 22 18 16 14 14 15 17 17 15 15 15 14 14 15 17 18 20 20 20 20 20 20 20 19
34 34 35 34 32 31 29 27 29 30 32 31 32 34 36 33 26 25 23 19 16 15 15 14 15 16 18 18 16 15 14 14 15 16 17 18 20 21 21 21 21 21 20 19
34 33 32 30 30 31 30 30 32 33 33 31 31 31 32 27 24 19 17 13 12 13 15 15 16 17 18 17 15 14 14 14 15 17 18 19 19 20 21 21 20 21 21 20
32 31 29 29 29 30 32 34 35 36 34 30 29 29 28 25 21 18 17 14 14 14 15 16 17 18 18 17 16 15 15 15 16 17 18 18 18 19 20 20 20 21 22 22
31 28 27 27 30 33 34 35 35 33 31 30 29 28 28 24 21 21 20 18 17 16 17 16 17 20 20 18 17 17 17 16 17 17 18 18 18 18 19 19 20 21 23 24
Wind_Direction
296 298 291 283 286 274 260 262 262 281 289 301 306 313 315 314 311 309 311 314 310 310 316 314 317 330 324 320 317 314 313 315 316 316 315 317 319 319 319 315 311 309 306 304
312 314 298 299 301 281 250 257 257 279 290 288 311 315 318 320 311 309 316 313 313 313 317 319 330 326 322 318 317 318 317 317 318 318 317 317 316 318 317 314 312 310 309 308
290 315 311 311 112 325 304 288 296 291 289 303 310 306 311 316 314 310 311 315 317 318 311 322 322 322 322 321 318 317 318 318 319 318 317 314 316 317 316 317 316 314 311 310
276 306 277 253 298 299 295 293 291 296 292 305 311 309 312 312 316 312 309 318 317 308 319 321 320 322 322 316 315 317 319 321 320 319 312 315 321 321 324 323 320 318 316 315
265 268 289 314 285 308 301 294 290 293 295 300 294 304 314 319 320 309 310 319 314 318 319 319 322 320 317 314 316 318 321 320 319 314 311 319 324 326 326 323 321 321 321 320
273 269 266 275 298 298 290 285 287 306 306 299 308 314 323 315 308 317 320 316 318 316 317 319 317 315 315 314 315 316 317 318 318 314 315 320 323 324 321 323 323 323 321 320
263 255 272 290 282 285 300 294 305 312 312 306 322 323 323 321 327 322 321 321 316 319 320 320 317 314 313 311 312 314 316 317 316 316 316 319 321 321 322 324 322 322 322 323
262 255 270 261 304 304 304 304 307 309 308 319 325 322 324 327 324 324 324 321 319 318 320 321 315 310 308 309 311 313 315 315 315 314 316 318 321 322 324 324 324 325 326 326
267 269 280 294 297 302 301 305 303 307 318 325 325 327 326 326 322 322 324 323 321 322 322 315 310 308 309 307 310 314 314 311 314 316 317 321 322 325 326 326 326 328 329 330
288 299 290 292 296 301 304 303 305 308 321 324 324 322 321 319 320 321 323 323 322 319 314 312 310 310 306 305 312 306 305 308 316 316 318 320 324 327 328 328 330 330 331 331
283 293 293 296 299 301 295 301 313 322 322 323 322 319 319 322 324 321 320 320 318 317 317 317 316 313 308 303 297 300 304 313 314 315 318 324 326 327 331 332 333 333 333 334
287 289 289 301 298 300 309 318 317 318 318 318 319 320 321 321 320 319 319 319 319 322 321 321 321 317 308 305 300 303 310 316 314 317 322 326 327 330 334 338 336 336 337 337
290 286 303 297 302 308 311 315 316 316 316 319 323 322 321 320 320 321 321 321 322 323 322 323 322 318 316 308 308 310 320 316 320 324 327 327 329 334 337 339 341 342 342 341
284 292 297 295 309 305 306 312 315 317 320 321 321 320 318 318 320 321 321 319 320 321 322 321 322 319 318 314 313 323 322 322 324 327 330 329 333 337 339 343 347 347 347 348
282 293 290 305 305 309 314 316 319 320 320 320 320 319 319 320 321 320 319 318 319 321 322 322 320 322 321 317 323 323 322 323 327 332 334 332 334 338 341 346 351 351 351 353
298 296 302 301 306 312 317 318 317 317 316 316 316 317 318 318 320 319 317 318 319 320 320 319 318 324 319 318 322 320 319 324 329 335 338 335 335 337 340 346 351 355 354 356
289 299 302 307 311 314 315 314 313 313 314 315 315 317 318 319 318 316 316 316 317 317 319 316 320 317 316 317 319 316 318 320 328 335 339 338 336 337 340 345 350 355 357 357
297 300 303 304 307 310 310 311 313 315 317 317 317 319 320 321 320 317 315 314 314 316 316 312 315 312 314 316 319 316 314 315 324 332 337 338 337 338 342 346 349 352 356 359
294 298 301 305 307 308 312 314 315 317 317 316 318 320 321 323 321 323 317 314 311 314 310 307 307 311 312 315 317 316 313 315 320 327 333 335 336 338 340 344 347 348 351 355
298 301 303 304 309 312 314 315 316 317 319 320 319 319 319 320 317 315 315 310 311 313 304 301 303 310 310 313 317 318 317 318 319 322 328 332 332 332 334 335 339 343 343 346
301 300 303 306 310 312 314 314 315 318 321 321 319 320 321 322 316 312 313 309 313 311 300 296 301 310 310 312 316 320 321 321 321 322 327 330 332 332 332 332 332 334 337 337
298 301 305 308 310 311 313 314 317 320 323 320 320 322 322 321 318 312 313 306 306 301 293 295 297 309 313 310 313 317 319 322 321 323 327 332 335 335 336 336 335 333 331 330
301 304 306 307 307 309 311 313 317 323 323 317 319 322 322 320 316 313 308 309 301 291 285 293 297 307 316 315 306 310 314 316 317 321 327 333 335 336 337 337 337 335 332 327
302 302 304 304 304 305 307 308 311 319 322 320 321 324 323 319 315 313 310 306 289 285 290 294 299 308 315 317 309 304 305 307 310 317 323 328 332 334 336 337 337 337 334 330
299 300 302 300 302 305 305 303 306 312 317 319 320 321 326 320 315 317 316 304 290 296 298 294 297 306 312 314 310 301 300 301 308 315 319 323 328 333 335 338 339 341 339 335
298 301 301 301 305 306 305 306 306 310 310 311 318 323 324 320 313 308 308 301 282 289 303 299 300 306 309 308 305 301 298 300 306 312 317 319 323 330 333 335 338 342 343 339
300 297 297 300 304 307 309 311 309 313 312 311 312 319 320 319 313 307 301 294 282 281 286 289 305 305 303 302 300 298 297 298 302 306 313 316 317 323 328 330 333 339 341 339